Weather History for Amritsar, India

Change the Weather History Date:

Thursday, October 11, 2012

  Actual Average Record
Temperature  
Mean Temperature 76 °F -  
Max Temperature 91 °F 87 °F 95 °F (2000)
Min Temperature 61 °F 63 °F 59 °F (2007)
Cooling Degree Days 11    
Growing Degree Days 26 (Base 50)    
Moisture  
Dew Point 66 °F    
Average Humidity 68    
Maximum Humidity 100    
Minimum Humidity 25    
Precipitation  
Precipitation 0.00 in - - ()
Sea Level Pressure  
Sea Level Pressure 29.85 in    
Wind  
Wind Speed 1 mph ()    
Max Wind Speed 7 mph    
Max Gust Speed -    
Visibility 2.1 miles    
Events      
Averages and records for this station are not official NWS values.
T = Trace of Precipitation, MM = Missing Value Source: Averaged Metar Reports

Daily Weather History Graph

Daily Weather History Graph

Search for Another Location

Airport:

Trip Planner

Search our weather history database for the weather conditions in past years. The results will help you decide how hot, cold, wet, or windy it might be!

Date:

Astronomy

Oct. 11, 2012 Rise Set
Actual Time 6:31 AM IST 6:03 PM IST
Civil Twilight 6:06 AM IST 6:27 PM IST
Nautical Twilight 5:38 AM IST 6:55 PM IST
Astronomical Twilight 5:10 AM IST 7:24 PM IST
Moon 1:57 AM IST (10/11) 3:10 PM IST (10/11)
Length of Visible Light 12h 20m
Length of Day
11h 32m
Waning Crescent, 22% of the Moon is Illuminated
Oct 11
Waning Crescent
Oct 15
New
Oct 22
First Quarter
Oct 30
Full
Nov 7
Last Quarter

Hourly Weather History & Observations

Time (IST) Temp. Heat Index Dew Point Humidity Pressure Visibility Wind Dir Wind Speed Gust Speed Precip Events Conditions
12:00 AM 69.8 °F - 68.0 °F 94% 29.89 in - Calm Calm - N/A   Mist
12:30 AM 69.8 °F - 68.0 °F 94% 29.89 in - Calm Calm - N/A   Mist
1:30 AM 69.8 °F - 68.0 °F 94% 29.89 in - Calm Calm - N/A   Mist
2:00 AM 69.8 °F - 68.0 °F 94% 29.89 in 1.9 mi Calm Calm - N/A   Mist
2:30 AM 69.8 °F - 68.0 °F 94% 29.89 in 1.9 mi Calm Calm - N/A   Mist
5:30 AM 64.4 °F - 64.4 °F 100% 29.86 in 1.6 mi Calm Calm - N/A   Mist
6:00 AM 62.6 °F - 62.6 °F 100% 29.86 in 1.4 mi Calm Calm - N/A   Mist
6:30 AM 62.6 °F - 62.6 °F 100% 29.86 in 1.4 mi Calm Calm - N/A   Mist
8:30 AM 67 °F - 65 °F 93% 29.88 in 1 mi Calm Calm - -   Mist
9:30 AM 73.4 °F - 68.0 °F 83% 29.92 in 1.9 mi Calm Calm - N/A   Mist
10:00 AM 75.2 °F - 68.0 °F 78% 29.92 in 2.2 mi WSW 3.5 mph - N/A   Mist
11:30 AM 82 °F - 63 °F 42% 29.87 in 2 mi WSW 5.8 mph - -   Haze
12:30 PM 84.2 °F 84.4 °F 60.8 °F 45% 29.89 in 3.1 mi SW 6.9 mph - N/A   Smoke
1:00 PM 86.0 °F 86.1 °F 60.8 °F 43% 29.86 in 3.1 mi WSW 5.8 mph - N/A   Smoke
2:00 PM 89.6 °F 89.5 °F 60.8 °F 38% 29.86 in 3.1 mi West 6.9 mph - N/A   Smoke
2:30 PM 90 °F - 59 °F 25% 29.80 in 2 mi West 5.8 mph - -   Smoke
3:30 PM 89.6 °F 88.9 °F 59.0 °F 36% 29.83 in 3.1 mi West 4.6 mph - N/A   Smoke
4:30 PM 87.8 °F 87.6 °F 60.8 °F 40% 29.83 in 3.1 mi Variable 2.3 mph - N/A   Smoke
5:30 PM 87 °F - 64 °F 37% 29.78 in 2 mi 2.3 mph - -   Smoke
6:00 PM 86.0 °F 87.3 °F 64.4 °F 48% 29.80 in 3.1 mi Variable 2.3 mph - N/A   Smoke
6:30 PM 84.2 °F 85.6 °F 64.4 °F 51% 29.80 in 2.5 mi Variable 2.3 mph - N/A   Smoke
7:00 PM 84.2 °F 85.6 °F 64.4 °F 51% 29.83 in 2.5 mi Variable 2.3 mph - N/A   Smoke
7:30 PM 84.2 °F 85.6 °F 64.4 °F 51% 29.80 in 2.5 mi Calm Calm - N/A   Smoke
8:00 PM 82.4 °F 85.4 °F 68.0 °F 62% 29.83 in 2.5 mi Calm Calm - N/A   Smoke
8:30 PM 81 °F - 71 °F 64% 29.80 in 1 mi Calm Calm - -   Smoke
8:30 PM 80.6 °F 84.6 °F 71.6 °F 74% 29.83 in 2.5 mi Variable 2.3 mph - N/A   Smoke
9:00 PM 80.6 °F 84.6 °F 71.6 °F 74% 29.83 in 1.9 mi Variable 2.3 mph - N/A   Haze
10:00 PM 78.8 °F - 71.6 °F 78% 29.83 in 1.9 mi Variable 2.3 mph - N/A   Haze
11:00 PM 78.8 °F - 71.6 °F 78% 29.83 in 1.9 mi Variable 2.3 mph - N/A   Haze
11:30 PM 78 °F - 72 °F 77% 29.81 in 1 mi Calm Calm - -   Mist
11:30 PM 78.8 °F - 71.6 °F 78% 29.83 in 1.6 mi Variable 2.3 mph - N/A   Mist